Regional Weather Roundup
Issued by NWS

Home | Current Version | Previous Version | Graphics & Text | Print | Product List | Glossary On
Versions: 1 2 3 4 5 6 7 8 9 10 11 12 13 14 15 16 17 18 19 20 21 22 23 24 25 26 27 28 29 30 31 32 33 34 35 36 37 38 39 40 41 42 43 44 45 46 47 48 49 50
000
ASUS43 KFSD 120602
RWRSD

WEATHER ROUNDUP FOR SOUTH DAKOTA
NATIONAL WEATHER SERVICE SIOUX FALLS SD
100 AM CDT SAT JUL 12 2014

NOTE: "FAIR" INDICATES FEW OR NO CLOUDS BELOW 12,000 FEET WITH NO
SIGNIFICANT WEATHER AND/OR OBSTRUCTIONS TO VISIBILITY.


SDZ001>005-009-010-012>017-120700-
NORTHWEST AND NORTH CENTRAL SOUTH DAKOTA

CITY           SKY/WX    TMP DP  RH WIND       PRES   REMARKS
BUFFALO          N/A     66  58  75 E10       30.06F
FAITH            N/A     69  58  67 VRB3      30.10R
MOBRIDGE       CLOUDY    70  59  68 N12       30.04S
$$

SDZ012>016-024>037-041>051-057-063-072>074-120700-
SOUTHWEST AND SOUTH CENTRAL SOUTH DAKOTA

CITY           SKY/WX    TMP DP  RH WIND       PRES   REMARKS
RAPID CTY ARPT CLOUDY    68  58  70 SW12      30.13F
PIERRE         CLOUDY    73  69  87 NE6       30.00F
CUSTER         CLOUDY    57  55  93 S6        30.27R
ELLSWORTH AFB  CLOUDY    68  58  70 S10       30.11F
PHILIP         CLOUDY    68  63  84 NW9       30.08R
PINE RIDGE     CLOUDY    64  62  93 SE6       30.13F
WINNER         FAIR      73  66  78 W6        30.05R
$$

SDZ004>011-016>023-039-040-120700-
NORTHEAST SOUTH DAKOTA

CITY           SKY/WX    TMP DP  RH WIND       PRES   REMARKS
ABERDEEN       CLOUDY    70  61  73 N6        30.03F
WATERTOWN      CLOUDY    71  67  87 N5        30.03S
SISSETON         N/A     69  64  84 N6        30.02S
$$

SDZ017-020-022-023-036>040-048>070-120700-
SOUTHEAST SOUTH DAKOTA

CITY           SKY/WX    TMP DP  RH WIND       PRES   REMARKS
SIOUX FALLS    CLOUDY    73  71  93 NE5       30.00F
HURON          LGT RAIN  77  71  82 E3        29.98F
CHAMBERLAIN    CLOUDY    73  69  89 SW5       30.04R
MITCHELL       CLOUDY    76  75  97 SE3       29.99S
YANKTON        CLOUDY    73  72  94 S5        29.98F
$$

ABBREVIATIONS USED IN REMARKS
   TC - TEMPERATURE IN CELSIUS
  WCI - WIND CHILL INDEX
   HX - HEAT INDEX
  VSB - VISIBILITY




USA.gov is the U.S. government's official web portal to all federal, state and local government web resources and services.